Location: ????????
(55.0808°N, 38.5463°E)
Time: 10:19:21
(UTC+00:00)

NOSS 3-4 (C) - Visible Passes

Search period start: 24 July 2024 00:00
Search period end: 03 August 2024 00:00
Orbit: 814 x 1397 km, 63.4° (Epoch: 04 June)

Date Brightness Start Highest point End Pass type
(mag) Time Alt. Az. Time Alt. Az. Time Alt. Az.
24 Jul 4.0 22:54:34 18° S 22:58:20 42° SE 23:04:02 10° NE visible
25 Jul 4.4 22:10:53 19° SSE 22:13:45 28° ESE 22:18:47 10° ENE visible
25 Jul 3.4 23:58:18 10° SW 00:03:55 83° NW 00:10:19 10° NE visible
26 Jul 4.8 21:27:10 15° SE 21:29:17 19° ESE 21:33:15 10° ENE visible
26 Jul 3.3 23:14:35 17° SW 23:19:00 74° SE 23:25:16 10° NE visible
27 Jul 5.2 20:43:26 10° ESE 20:44:56 11° ESE 20:46:44 10° E visible
27 Jul 3.6 22:30:51 23° SSW 22:34:13 52° SE 22:40:12 10° NE visible
28 Jul 3.9 00:19:25 10° WSW 00:25:05 57° NNW 00:31:30 10° NE visible
28 Jul 4.0 21:47:04 24° SSE 21:49:34 36° ESE 21:55:02 10° ENE visible
28 Jul 3.6 23:34:28 11° WSW 23:40:00 72° NW 23:46:25 10° NE visible
29 Jul 4.5 21:03:15 20° SE 21:05:01 24° ESE 21:09:42 10° ENE visible
29 Jul 3.3 22:50:39 18° SW 22:55:01 88° SE 23:01:22 10° NE visible
30 Jul 4.5 00:40:52 10° W 00:46:29 45° NNW 00:52:51 10° ENE visible
30 Jul 4.9 20:19:24 14° ESE 20:20:37 15° ESE 20:23:54 10° ENE visible
30 Jul 3.3 22:06:48 25° SSW 22:10:10 64° SE 22:16:19 10° NE visible
30 Jul 4.2 23:55:37 10° W 00:01:16 51° NNW 00:07:39 10° NE visible
31 Jul 3.7 21:22:55 28° S 21:25:25 45° SE 21:31:13 10° NE visible
31 Jul 3.8 23:10:27 10° WSW 23:16:06 63° NNW 23:22:33 10° NE visible
01 Aug 4.2 20:38:58 25° SSE 20:40:49 30° ESE 20:46:00 10° ENE visible
01 Aug 3.4 22:26:21 16° WSW 22:31:04 80° NW 22:37:28 10° NE visible
02 Aug 4.6 00:17:05 10° W 00:22:42 42° N 00:29:05 10° ENE visible
02 Aug 4.6 19:54:58 18° SE 19:56:20 20° ESE 20:00:31 10° ENE visible
02 Aug 3.2 21:42:21 22° SW 21:46:08 78° SE 21:52:25 10° NE visible
02 Aug 4.4 23:31:49 10° W 23:37:27 47° NNW 23:43:50 10° NE visible
